Location: Erdweis
(48.5167°N, 15.3500°E)
Time: 01:55:30
(UTC+00:00)

Cosmos 372 Rocket - Pass Details

Date: 18 September 2020
Orbit: 739 x 767 km, 74.1° (Epoch: 31 October)

Event Time Altitude Azimuth Distance (km) Brightness Sun altitude
Rises 18:43:47 0° 201° (SSW) 3,223 7.2 -16.9°
Reaches altitude 10° 18:46:09 10° 201° (SSW) 2,300 6.5 -17.2°
Maximum altitude 18:51:23 90° 120° (ESE) 772 3.9 -18.0°
Drops below altitude 10° 18:56:38 10° 23° (NNE) 2,305 6.5 -18.8°
Sets 18:59:01 0° 24° (NNE) 3,231 7.3 -19.2°
